Bend, OR

2:31 PM PDT on September 16, 2019 (GMT -0700)
Bend Municipal

Weather History for KBDN - July, 2019

Change the Weather History Date:

Sunday, July 21, 2019

  Actual Average (KRDM) Record (KRDM)
Temperature  
Mean Temperature 68 °F -  
Max Temperature 87 °F 86 °F 102 °F (2006)
Min Temperature 50 °F 46 °F 36 °F (1954)
Cooling Degree Days 4    
Growing Degree Days 18 (Base 50)    
Moisture  
Dew Point 35 °F    
Average Humidity 29    
Maximum Humidity 54    
Minimum Humidity 16    
Precipitation  
Precipitation 0.00 in - - ()
Sea Level Pressure  
Sea Level Pressure 30.04 in    
Wind  
Wind Speed 6 mph (WNW)    
Max Wind Speed 13 mph    
Max Gust Speed 21 mph    
Visibility 10 miles    
Events      
Averages and records for this station are not official NWS values.
T = Trace of Precipitation, MM = Missing Value Source: NWS Daily Summary

Daily Weather History Graph

Daily Weather History Graph

Search for Another Location

Airport or City:

Astronomy

Jul. 21, 2019 Rise Set
Actual Time 5:41 AM PDT 8:40 PM PDT
Civil Twilight 5:06 AM PDT 9:15 PM PDT
Nautical Twilight 4:22 AM PDT 9:58 PM PDT
Astronomical Twilight 3:30 AM PDT 10:50 PM PDT
Moon 11:28 PM PDT (7/21) 10:14 AM PDT (7/21)
Length of Visible Light 16h 08m
Length of Day
14h 59m
Waning Gibbous, 79% of the Moon is Illuminated
Jul 21
Waning Gibbous
Jul 24
Last Quarter
Jul 31
New
Aug 7
First Quarter
Aug 15
Full

Hourly Weather History & Observations

Time (PDT) Temp. Dew Point Humidity Pressure Visibility Wind Dir Wind Speed Gust Speed Precip Events Conditions
12:15 AM 60.8 °F 32.0 °F 34% 30.06 in 10.0 mi West 8.1 mph - N/A   Clear
12:35 AM 60.8 °F 32.0 °F 34% 30.06 in 10.0 mi West 8.1 mph - N/A   Clear
12:55 AM 60.8 °F 32.0 °F 34% 30.06 in 10.0 mi West 6.9 mph - N/A   Clear
1:15 AM 60.8 °F 32.0 °F 34% 30.06 in 10.0 mi West 5.8 mph - N/A   Clear
1:35 AM 59.0 °F 32.0 °F 36% 30.06 in 10.0 mi West 8.1 mph - N/A   Clear
1:55 AM 59.0 °F 32.0 °F 36% 30.06 in 10.0 mi West 8.1 mph - N/A   Clear
2:15 AM 59.0 °F 32.0 °F 36% 30.06 in 10.0 mi West 5.8 mph - N/A   Clear
2:35 AM 57.2 °F 32.0 °F 38% 30.05 in 10.0 mi West 6.9 mph - N/A   Clear
2:55 AM 57.2 °F 32.0 °F 38% 30.07 in 10.0 mi Calm Calm - N/A   Clear
3:15 AM 55.4 °F 33.8 °F 44% 30.06 in 10.0 mi Calm Calm - N/A   Clear
3:35 AM 53.6 °F 33.8 °F 47% 30.06 in 10.0 mi Calm Calm - N/A   Clear
3:55 AM 53.6 °F 33.8 °F 47% 30.06 in 10.0 mi Calm Calm - N/A   Clear
4:15 AM 51.8 °F 33.8 °F 50% 30.06 in 10.0 mi SSW 3.5 mph - N/A   Clear
4:35 AM 51.8 °F 33.8 °F 50% 30.06 in 10.0 mi SSW 4.6 mph - N/A   Clear
4:55 AM 50.0 °F 33.8 °F 54% 30.07 in 10.0 mi SSW 5.8 mph - N/A   Clear
5:15 AM 50.0 °F 33.8 °F 54% 30.07 in 10.0 mi SSW 4.6 mph - N/A   Clear
5:35 AM 50.0 °F 33.8 °F 54% 30.07 in 10.0 mi SSW 4.6 mph - N/A   Clear
5:55 AM 50.0 °F 33.8 °F 54% 30.07 in 10.0 mi SSW 5.8 mph - N/A   Clear
6:15 AM 50.0 °F 33.8 °F 54% 30.07 in 10.0 mi SSW 4.6 mph - N/A   Clear
6:35 AM 51.8 °F 35.6 °F 54% 30.08 in 10.0 mi SSW 4.6 mph - N/A   Clear
6:55 AM 53.6 °F 35.6 °F 51% 30.08 in 10.0 mi South 3.5 mph - N/A   Clear
7:15 AM 55.4 °F 35.6 °F 47% 30.08 in 10.0 mi SSW 3.5 mph - N/A   Clear
7:35 AM 59.0 °F 37.4 °F 45% 30.08 in 10.0 mi SW 3.5 mph - N/A   Clear
7:55 AM 62.6 °F 35.6 °F 37% 30.08 in 10.0 mi SW 3.5 mph - N/A   Clear
8:15 AM 64.4 °F 32.0 °F 30% 30.08 in 10.0 mi Calm Calm - N/A   Clear
8:35 AM 66.2 °F 32.0 °F 28% 30.08 in 10.0 mi NNW 4.6 mph - N/A   Clear
8:55 AM 68.0 °F 32.0 °F 26% 30.08 in 10.0 mi Calm Calm - N/A   Clear
9:15 AM 69.8 °F 33.8 °F 27% 30.08 in 10.0 mi Calm Calm - N/A   Clear
9:35 AM 69.8 °F 33.8 °F 27% 30.08 in 10.0 mi Variable 3.5 mph - N/A   Clear
9:55 AM 71.6 °F 33.8 °F 25% 30.07 in 10.0 mi NW 5.8 mph - N/A   Clear
10:15 AM 71.6 °F 33.8 °F 25% 30.07 in 10.0 mi NW 6.9 mph - N/A   Clear
10:35 AM 73.4 °F 33.8 °F 23% 30.06 in 10.0 mi WNW 6.9 mph - N/A   Clear
10:55 AM 73.4 °F 33.8 °F 23% 30.06 in 10.0 mi SW 4.6 mph - N/A   Clear
11:15 AM 77.0 °F 33.8 °F 21% 30.06 in 10.0 mi North 8.1 mph - N/A   Clear
11:35 AM 77.0 °F 33.8 °F 21% 30.06 in 10.0 mi Variable 4.6 mph - N/A   Clear
11:55 AM 77.0 °F 33.8 °F 21% 30.05 in 10.0 mi Variable 4.6 mph - N/A   Clear
12:15 PM 77.0 °F 33.8 °F 21% 30.05 in 10.0 mi Calm Calm - N/A   Clear
12:55 PM 78.8 °F 33.8 °F 20% 30.04 in 10.0 mi North 4.6 mph - N/A   Clear
1:15 PM 80.6 °F 33.8 °F 18% 30.04 in 10.0 mi Variable 6.9 mph - N/A   Clear
1:35 PM 82.4 °F 33.8 °F 17% 30.03 in 10.0 mi NNE 5.8 mph 15.0 mph N/A   Clear
1:55 PM 84.2 °F 33.8 °F 16% 30.03 in 10.0 mi North 10.4 mph - N/A   Clear
2:15 PM 84.2 °F 33.8 °F 16% 30.02 in 10.0 mi North 9.2 mph - N/A   Clear
2:35 PM 86.0 °F 35.6 °F 17% 30.01 in 10.0 mi Variable 6.9 mph 13.8 mph N/A   Clear
2:55 PM 86.0 °F 35.6 °F 17% 30.01 in 10.0 mi North 12.7 mph - N/A   Clear
3:15 PM 86.0 °F 37.4 °F 18% 30.00 in 10.0 mi NW 11.5 mph - N/A   Clear
3:35 PM 87.8 °F 37.4 °F 17% 30.00 in 10.0 mi North 10.4 mph 17.3 mph N/A   Clear
3:55 PM 87.8 °F 37.4 °F 17% 29.99 in 10.0 mi NW 12.7 mph - N/A   Clear
4:15 PM 87.8 °F 37.4 °F 17% 29.99 in 10.0 mi NNW 11.5 mph - N/A   Clear
4:35 PM 87.8 °F 37.4 °F 17% 29.99 in 10.0 mi North 9.2 mph 17.3 mph N/A   Clear
4:55 PM 87.8 °F 37.4 °F 17% 29.98 in - North 8.1 mph 15.0 mph N/A   Clear
5:15 PM 87.8 °F 37.4 °F 17% 29.98 in 10.0 mi NNW 10.4 mph - N/A   Clear
5:35 PM 87.8 °F 37.4 °F 17% 29.97 in 10.0 mi NNW 10.4 mph 16.1 mph N/A   Clear
5:55 PM 87.8 °F 37.4 °F 17% 29.97 in 10.0 mi NNW 12.7 mph - N/A   Clear
6:15 PM 87.8 °F 37.4 °F 17% 29.97 in 10.0 mi NNW 10.4 mph 17.3 mph N/A   Clear
6:35 PM 87.8 °F 37.4 °F 17% 29.97 in 10.0 mi NNW 12.7 mph - N/A   Clear
6:55 PM 86.0 °F 37.4 °F 18% 29.97 in 10.0 mi North 11.5 mph 20.7 mph N/A   Clear
7:15 PM 86.0 °F 37.4 °F 18% 29.97 in 10.0 mi North 12.7 mph - N/A   Clear
7:55 PM 82.4 °F 35.6 °F 19% 29.98 in 10.0 mi North 11.5 mph 17.3 mph N/A   Clear
8:15 PM 82.4 °F 35.6 °F 19% 29.99 in 10.0 mi North 11.5 mph - N/A   Clear
8:35 PM 80.6 °F 37.4 °F 21% 29.99 in 10.0 mi NNW 9.2 mph 16.1 mph N/A   Clear
8:55 PM 78.8 °F 37.4 °F 23% 30.00 in 10.0 mi NNW 9.2 mph - N/A   Clear
9:15 PM 77.0 °F 37.4 °F 24% 30.00 in 10.0 mi NNW 8.1 mph - N/A   Clear
9:35 PM 75.2 °F 37.4 °F 25% 30.01 in 10.0 mi NW 6.9 mph - N/A   Clear
9:55 PM 75.2 °F 37.4 °F 25% 30.02 in 10.0 mi NW 5.8 mph - N/A   Clear
10:15 PM 73.4 °F 37.4 °F 27% 30.03 in 10.0 mi WNW 5.8 mph - N/A   Clear
10:35 PM 71.6 °F 37.4 °F 29% 30.03 in 10.0 mi WNW 5.8 mph - N/A   Clear
10:55 PM 69.8 °F 37.4 °F 31% 30.03 in 10.0 mi West 6.9 mph - N/A   Clear
11:15 PM 69.8 °F 37.4 °F 31% 30.03 in 10.0 mi West 6.9 mph - N/A   Clear
11:35 PM 69.8 °F 37.4 °F 31% 30.03 in 10.0 mi West 6.9 mph - N/A   Clear
11:55 PM 68.0 °F 39.2 °F 35% 30.03 in 10.0 mi West 5.8 mph - N/A   Clear